Hourly Weather Barnowko

Today, 19 April, Monday

Time Temperature Precipitation Wind Pressure Humidity
00:00 +8°C° 0 mm 1 mps 761 mmHg 88%
01:00 +7°C° 0 mm 1 mps 761 mmHg 89%
02:00 +7°C° 0 mm 1 mps 761 mmHg 89%
03:00 +7°C° 0 mm 1 mps 761 mmHg 89%
04:00 +7°C° 0 mm 1 mps 761 mmHg 89%
05:00 +8°C° 0 mm 1 mps 761 mmHg 87%
06:00 +8°C° 0 mm 2 mps 761 mmHg 86%
07:00 +9°C° 0 mm 2 mps 761 mmHg 84%
08:00 +12°C° 0 mm 2 mps 760 mmHg 76%
09:00 +12°C° 0 mm 3 mps 760 mmHg 69%
10:00 +14°C° 0 mm 3 mps 760 mmHg 62%
11:00 +16°C° 0 mm 3 mps 760 mmHg 59%
12:00 +17°C° 0 mm 3 mps 759 mmHg 56%
13:00 +18°C° 0 mm 3 mps 759 mmHg 53%
14:00 +18°C° 0.4 mm 3 mps 759 mmHg 54%
15:00 +18°C° 0.4 mm 3 mps 758 mmHg 56%
16:00 +18°C° 0.4 mm 3 mps 758 mmHg 58%
17:00 +16°C° 1.2 mm 3 mps 758 mmHg 66%
18:00 +13°C° 1.2 mm 3 mps 758 mmHg 75%
19:00 +11°C° 1.2 mm 3 mps 758 mmHg 83%
20:00 +11°C° 0.1 mm 3 mps 758 mmHg 83%
21:00 +10°C° 0.1 mm 3 mps 758 mmHg 84%
22:00 +10°C° 0.1 mm 3 mps 758 mmHg 84%
23:00 +9°C° 0 mm 2 mps 758 mmHg 85%

Tomorrow, 20 April, Tuesday

Time Temperature Precipitation Wind Pressure Humidity
00:00 +8°C° 0 mm 2 mps 758 mmHg 86%
01:00 +8°C° 0 mm 2 mps 758 mmHg 88%
02:00 +7°C° 0 mm 2 mps 758 mmHg 89%
03:00 +7°C° 0 mm 2 mps 758 mmHg 90%
04:00 +6°C° 0 mm 2 mps 758 mmHg 91%
05:00 +7°C° 0 mm 2 mps 758 mmHg 88%
06:00 +9°C° 0 mm 1 mps 758 mmHg 85%
07:00 +10°C° 0 mm 1 mps 758 mmHg 83%
08:00 +12°C° 0.1 mm 1 mps 758 mmHg 77%
09:00 +13°C° 0.1 mm 1 mps 758 mmHg 71%
10:00 +15°C° 0.1 mm 1 mps 757 mmHg 65%
11:00 +16°C° 0.5 mm 1 mps 757 mmHg 61%
12:00 +18°C° 0.5 mm 1 mps 757 mmHg 56%
13:00 +18°C° 0.5 mm 1 mps 756 mmHg 51%
14:00 +17°C° 0.3 mm 2 mps 756 mmHg 52%
15:00 +17°C° 0.3 mm 2 mps 756 mmHg 52%
16:00 +17°C° 0.3 mm 2 mps 756 mmHg 52%
17:00 +15°C° 0.1 mm 2 mps 756 mmHg 60%
18:00 +13°C° 0.1 mm 2 mps 756 mmHg 68%
19:00 +12°C° 0.1 mm 2 mps 756 mmHg 76%
20:00 +10°C° 0 mm 2 mps 756 mmHg 81%
21:00 +9°C° 0 mm 2 mps 756 mmHg 85%
22:00 +8°C° 0 mm 2 mps 756 mmHg 89%
23:00 +7°C° 0 mm 2 mps 756 mmHg 90%

Day after tomorrow, 21 April, Wednesday

Time Temperature Precipitation Wind Pressure Humidity
00:00 +6°C° 0 mm 2 mps 755 mmHg 91%
01:00 +6°C° 0 mm 2 mps 755 mmHg 91%
02:00 +5°C° 0 mm 2 mps 755 mmHg 91%
03:00 +5°C° 0 mm 2 mps 755 mmHg 92%
04:00 +4°C° 0 mm 2 mps 755 mmHg 92%
05:00 +5°C° 0 mm 2 mps 755 mmHg 87%
06:00 +5°C° 0 mm 3 mps 755 mmHg 83%
07:00 +7°C° 0 mm 3 mps 755 mmHg 79%
08:00 +9°C° 0 mm 3 mps 755 mmHg 72%
09:00 +11°C° 0 mm 3 mps 755 mmHg 65%
10:00 +13°C° 0 mm 3 mps 755 mmHg 58%
11:00 +13°C° 0 mm 4 mps 755 mmHg 53%
12:00 +14°C° 0 mm 4 mps 754 mmHg 49%
13:00 +15°C° 0 mm 5 mps 754 mmHg 45%
14:00 +14°C° 0 mm 5 mps 754 mmHg 49%
15:00 +13°C° 0 mm 6 mps 754 mmHg 53%
16:00 +12°C° 0 mm 7 mps 754 mmHg 57%
17:00 +10°C° 0 mm 6 mps 754 mmHg 64%
18:00 +8°C° 0 mm 4 mps 754 mmHg 71%
19:00 +7°C° 0 mm 3 mps 755 mmHg 77%
20:00 +5°C° 0 mm 3 mps 755 mmHg 76%
21:00 +5°C° 0 mm 4 mps 755 mmHg 74%
22:00 +4°C° 0 mm 4 mps 755 mmHg 72%
23:00 +2°C° 0 mm 5 mps 755 mmHg 72%

22 April, Thursday

Time Temperature Precipitation Wind Pressure Humidity
00:00 +2°C° 0 mm 5 mps 755 mmHg 71%
01:00 +1°C° 0 mm 5 mps 755 mmHg 71%
02:00 +1°C° 0 mm 6 mps 755 mmHg 72%
03:00 -1°C° 0 mm 6 mps 755 mmHg 74%
04:00 -1°C° 0 mm 6 mps 755 mmHg 75%
05:00 -1°C° 0 mm 7 mps 755 mmHg 74%
06:00 0°C° 0 mm 7 mps 754 mmHg 73%
07:00 0°C° 0 mm 7 mps 754 mmHg 72%
08:00 +1°C° 0.1 mm 8 mps 754 mmHg 70%
09:00 +2°C° 0.1 mm 8 mps 754 mmHg 67%
10:00 +4°C° 0.1 mm 8 mps 754 mmHg 65%
11:00 +5°C° 0.3 mm 8 mps 754 mmHg 64%
12:00 +5°C° 0.3 mm 8 mps 754 mmHg 63%
13:00 +6°C° 0.3 mm 8 mps 754 mmHg 62%
14:00 +5°C° 0.4 mm 8 mps 754 mmHg 71%
15:00 +4°C° 0.4 mm 7 mps 754 mmHg 80%
16:00 +3°C° 0.4 mm 7 mps 754 mmHg 89%
17:00 +3°C° 0.5 mm 7 mps 754 mmHg 87%
18:00 +3°C° 0.5 mm 7 mps 754 mmHg 86%
19:00 +3°C° 0.5 mm 7 mps 754 mmHg 85%
20:00 +2°C° 0 mm 7 mps 755 mmHg 87%
21:00 +2°C° 0 mm 6 mps 755 mmHg 89%
22:00 +1°C° 0 mm 5 mps 756 mmHg 91%
23:00 +2°C° 0 mm 5 mps 756 mmHg 89%

23 April, Friday

Time Temperature Precipitation Wind Pressure Humidity
00:00 +2°C° 0 mm 5 mps 757 mmHg 87%
01:00 +2°C° 0 mm 5 mps 757 mmHg 85%
02:00 +2°C° 0 mm 5 mps 757 mmHg 85%
03:00 +2°C° 0 mm 5 mps 757 mmHg 84%
04:00 +2°C° 0 mm 5 mps 758 mmHg 84%
05:00 +2°C° 0 mm 5 mps 758 mmHg 84%
06:00 +2°C° 0 mm 5 mps 759 mmHg 83%
07:00 +3°C° 0 mm 5 mps 759 mmHg 83%
08:00 +4°C° 0 mm 6 mps 760 mmHg 72%
09:00 +5°C° 0 mm 6 mps 760 mmHg 62%
10:00 +8°C° 0 mm 6 mps 760 mmHg 51%
11:00 +8°C° 0 mm 6 mps 760 mmHg 49%
12:00 +9°C° 0 mm 6 mps 760 mmHg 46%
13:00 +9°C° 0 mm 5 mps 760 mmHg 44%
14:00 +9°C° 0.1 mm 5 mps 760 mmHg 47%
15:00 +9°C° 0.1 mm 5 mps 760 mmHg 49%
16:00 +9°C° 0.1 mm 5 mps 760 mmHg 52%
17:00 +8°C° 0.1 mm 5 mps 760 mmHg 58%
18:00 +8°C° 0.1 mm 4 mps 760 mmHg 63%
19:00 +7°C° 0.1 mm 4 mps 759 mmHg 69%
20:00 +6°C° 0.1 mm 4 mps 759 mmHg 71%
21:00 +5°C° 0.1 mm 5 mps 759 mmHg 73%
22:00 +5°C° 0.1 mm 5 mps 759 mmHg 75%
23:00 +3°C° 0 mm 5 mps 759 mmHg 79%

24 April, Saturday

Time Temperature Precipitation Wind Pressure Humidity
00:00 +3°C° 0 mm 6 mps 759 mmHg 83%
01:00 +2°C° 0 mm 6 mps 759 mmHg 86%
02:00 +2°C° 0.1 mm 5 mps 759 mmHg 88%
03:00 +2°C° 0.1 mm 5 mps 759 mmHg 89%
04:00 +3°C° 0.1 mm 4 mps 760 mmHg 90%
05:00 +3°C° 0.3 mm 4 mps 760 mmHg 88%
06:00 +3°C° 0.3 mm 4 mps 760 mmHg 85%
07:00 +3°C° 0.3 mm 4 mps 761 mmHg 82%
08:00 +3°C° 0.1 mm 5 mps 761 mmHg 71%
09:00 +5°C° 0.1 mm 5 mps 761 mmHg 61%
10:00 +7°C° 0.1 mm 6 mps 762 mmHg 50%
11:00 +7°C° 0 mm 6 mps 762 mmHg 46%
12:00 +8°C° 0 mm 7 mps 762 mmHg 42%
13:00 +8°C° 0 mm 7 mps 762 mmHg 37%
14:00 +8°C° 0 mm 7 mps 762 mmHg 40%
15:00 +8°C° 0 mm 7 mps 762 mmHg 42%
16:00 +8°C° 0 mm 7 mps 763 mmHg 44%
17:00 +7°C° 0 mm 6 mps 763 mmHg 47%
18:00 +4°C° 0 mm 6 mps 763 mmHg 51%
19:00 +3°C° 0 mm 5 mps 763 mmHg 55%
20:00 +3°C° 0 mm 4 mps 764 mmHg 59%
21:00 +1°C° 0 mm 4 mps 764 mmHg 64%
22:00 +1°C° 0 mm 3 mps 764 mmHg 68%
23:00 0°C° 0 mm 4 mps 764 mmHg 69%
Show more